Terminal Aerodrome Forecast
Issued by NWS Cleveland, OH

Home | Current Version | Previous Version | Graphics & Text | Print | Product List | Glossary On
Versions: 1 2 3 4 5 6 7 8 9 10 11 12 13 14 15 16 17 18 19 20 21 22 23 24 25 26 27 28 29 30
000
FTUS41 KCLE 262300
TAFYNG
TAF
KYNG 262335Z 2700/2724 06004KT P6SM OVC025
     FM271400 32008KT P6SM VCSH SCT012 OVC025=

USA.gov is the U.S. government's official web portal to all federal, state and local government web resources and services.